K9JM Weather Reports


Display with metric or nautical units.
time (UTC)temp
F
wind
direction
speed
MPH
gust
MPH
rain 1hr
in
rain 24hr
in
rain mn
in
humidity
%
barometer
mb
20260505010016 48 0.0 0.0 0.14 0.35 0.35 95 1013.5
20260505004516 48 0.0 0.0 0.18 0.35 0.35 95 1013.7
20260505003016 48 0.0 0.0 0.15 0.32 0.32 95 1013.4
20260505001515 48 0.0 0.0 0.11 0.27 0.27 95 1013.9
20260505000015 48 0.0 0.0 0.09 0.21 0.21 94 1013.5
20260504234516 48 0.0 0.0 0.06 0.17 0.17 94 1013.7
20260504233016 49 0.0 0.0 0.07 0.17 0.17 94 1013.6
20260504231516 48 0.0 0.0 0.07 0.16 0.16 94 1013.1
20260504230035 49 0.0 0.0 0.06 0.12 0.12 94 1014.3
20260504224515 49 0.0 0.0 0.07 0.11 0.11 94 1013.5
20260504223015 49 0.0 0.0 0.06 0.10 0.10 94 1013.7
20260504221516 49 0.0 0.0 0.06 0.09 0.09 93 1013.9
20260504220015 49 0.0 0.0 0.03 0.06 0.06 93 1013.9
20260504214515 49 0.0 0.0 0.01 0.04 0.04 93 1013.9
20260504213015 49 0.0 0.0 0.02 0.04 0.04 93 1013.8
20260504211515 49 0.0 0.0 0.01 0.03 0.03 92 1014.1
20260504210015 50 0.0 0.0 0.02 0.03 0.03 92 1014.0
20260504204515 50 0.0 0.0 0.02 0.03 0.03 92 1014.0
20260504203015 51 0.0 0.0 0.02 0.02 0.02 91 1014.0
20260504201517 51 0.0 0.0 0.02 0.02 0.02 90 1014.3
20260504200017 51 0.0 0.0 0.01 0.01 0.01 90 1014.4
20260504194517 51 0.0 0.0 0.01 0.01 0.01 88 1014.3
20260504193017 52 0.0 0.0 0.00 0.00 0.00 86 1014.1
20260504191517 52 0.0 0.0 0.00 0.00 0.00 84 1014.7
20260504190017 52 0.0 0.0 0.00 0.00 0.00 82 1014.5
20260504184517 53 0.0 0.0 0.00 0.00 0.00 81 1014.6
20260504183017 53 0.0 0.0 0.00 0.00 0.00 82 1014.6
20260504181537 53 0.0 0.0 0.00 0.00 0.00 80 1014.5
20260504180017 52 0.0 0.0 0.00 0.00 0.00 81 1014.4
20260504174517 52 0.0 0.0 0.00 0.00 0.00 80 1014.2
20260504173057 52 0.0 0.0 0.00 0.00 0.00 81 1014.0
20260504171517 52 0.0 0.0 0.00 0.00 0.00 82 1014.3
20260504081517 51 0.0 0.0 0.00 0.00 0.00 86 1013.0
20260504050015 54 0.0 0.0 0.00 0.00 0.00 84 1013.0
20260504044515 54 0.0 0.0 0.00 0.00 0.00 84 1012.8
20260504043016 54 0.0 0.0 0.00 0.00 0.00 84 1012.8
20260504041515 54 0.0 0.0 0.00 0.00 0.00 84 1012.6
20260504040116 54 0.0 0.0 0.00 0.00 0.00 84 1012.5
20260504034515 54 0.0 0.0 0.00 0.00 0.00 84 1012.1
20260504033015 54 0.0 0.0 0.00 0.00 0.00 84 1011.9
20260504031556 54 0.0 0.0 0.00 0.00 0.00 84 1011.6
20260504030015 55 0.0 0.0 0.00 0.00 0.00 84 1011.3
20260504024515 55 0.0 0.0 0.00 0.00 0.00 82 1011.1
20260504023016 55 0.0 0.0 0.00 0.00 0.00 82 1011.1
20260504021515 55 0.0 0.0 0.00 0.00 0.00 82 1011.1
20260504020015 55 0.0 0.0 0.00 0.00 0.00 82 1011.0
20260504014515 55 0.0 0.0 0.00 0.00 0.00 82 1010.9
20260504013015 55 0.0 0.0 0.00 0.00 0.00 82 1010.9
20260504011515 55 0.0 0.0 0.00 0.00 0.00 82 1010.9